Location: ??????
(41.3164°N, 22.6615°E)
Time: 01:11:44
(UTC+00:00)

Oscar 19 - Pass Details

Date: 04 July 2022
Orbit: 773 x 790 km, 98.8° (Epoch: 16 August)

Event Time Altitude Azimuth Distance (km) Brightness Sun altitude
Rises 02:07:55 0° 13° (NNE) 3,259 14.8 -8.9°
Reaches altitude 10° 02:10:14 10° 13° (NNE) 2,327 14.0 -8.6°
Maximum altitude 02:15:23 86° 285° (WNW) 781 10.6 -7.8°
Drops below altitude 10° 02:20:29 10° 197° (SSW) 2,313 12.6 -7.1°
Enters shadow 02:22:10 - 197° (SSW) 2,992 13.2 -6.8°
